SpaceMobile-005

operational
NORAD ID: 61046 Int'l Des: 2024-163 Owner: ASTS Country: US Constellation: bluewalker
LEOCIRCULAR

SpaceMobile-005について

説明を読み込み中...

リアルタイム位置

3D地球を読み込み中...

次回通過

高度履歴

Altitude vs Time

uPlot chart will show altitude changes over time

軌道要素

1 61046U 24163B 25352.23900922 .00008255 00000-0 38136-3 0 9991
2 61046 52.9774 61.6959 0009159 303.6679 56.3441 15.21008931 70221
Epoch: Dec 18, 2025 • Age: 9 hours

現在のステータス

高度 507.2 km
速度 7.61 km/s
衛星直下点 2.59°N, 65.3°W
打ち上げ日 Sep 12, 2024
運用期間 1.2 years
タイプ other

技術仕様

分類 Payload
質量 1500.00 kg
乾燥質量 1500.00 kg
総質量 1500.00 kg
長さ 1.00 m
直径 1.00 m
スパン 9.00 m
形状 Box + plate
製造者 ASTS
バスタイプ BW3
フェーズステータス In Orbit
所有者/国 ASTS/US

大規模コンステレーション

Loading constellations...